Irini — SYZA — position and weather

sailwx.info

Track history (hours):
 
Tides and Currents Weather Stations Pressure Air Temp Water Temp Dewpoint Dewpoint Depression Visibility Wind Speed Wind Dir Waves Ship Positions

Irini

Last reported at 2014-Sep-23 15:34 UTC. Time now 2014-Sep-23 16:29 UTC.
Position N 38°02' E 023°31'.

Length 137 m; draft 5.7 m.

Type: Tanker. MMSI: 240052000.

Date/timePositionNaut miles runAvg speedWind from/ knotsBaromVisibWave heightAir tempDewpointWater temp
2014-Sep-23 15:34N 38°02' E 023°31'0 0.0
2014-Sep-23 14:33N 38°02' E 023°31'0 0.0
2014-Sep-23 13:34N 38°02' E 023°31'0 0.0
2014-Sep-23 12:33N 38°02' E 023°31'0 0.0
2014-Sep-23 11:33N 38°02' E 023°31'0 0.0
2014-Sep-23 10:33N 38°02' E 023°31'0 0.0
2014-Sep-23 09:34N 38°02' E 023°31'0 0.0
2014-Sep-23 08:34N 38°02' E 023°31'0 0.0
2014-Sep-23 07:34N 38°02' E 023°31'1 0.7
2014-Sep-23 06:33N 38°01' E 023°31'8 7.8
2014-Sep-23 05:33N 37°55' E 023°36'9 8.8
2014-Sep-23 04:34N 37°47' E 023°42'1111.0
2014-Sep-23 03:32N 37°39' E 023°51'1111.2
2014-Sep-23 02:34N 37°37' E 024°05'1410.9
2014-Sep-23 01:15N 37°45' E 024°19'1810.8
2014-Sep-22 23:33N 37°58' E 024°35'2410.6
2014-Sep-22 21:16N 38°22' E 024°30'  
2014-Sep-20 16:23N 37°53' E 024°31'1311.3
2014-Sep-20 15:16N 37°44' E 024°19'811.1
2014-Sep-20 14:31N 37°39' E 024°11'1110.8
2014-Sep-20 13:29N 37°36' E 023°57'1011.1
2014-Sep-20 12:33N 37°39' E 023°45'1110.9
2014-Sep-20 11:33N 37°48' E 023°38'9 9.1
2014-Sep-20 10:33N 37°57' E 023°35'4 0.2
2014-Sep-19 08:33N 38°01' E 023°35'6 5.8
2014-Sep-19 07:33N 37°55' E 023°36'1 0.9
2014-Sep-19 06:33N 37°54' E 023°36'6 5.5
2014-Sep-19 05:33N 37°50' E 023°39'1010.2
2014-Sep-19 04:34N 37°41' E 023°46'1611.0
2014-Sep-19 03:03N 37°36' E 024°06'  
2014-Sep-16 00:31N 38°01' E 024°37'1111.3
2014-Sep-15 23:33N 37°52' E 024°30'1111.2
2014-Sep-15 22:33N 37°44' E 024°19'1111.0
2014-Sep-15 21:33N 37°37' E 024°08'7 7.2
2014-Sep-15 20:33N 37°39' E 023°59'0 0.0
2014-Sep-15 19:22N 37°39' E 023°59'14 7.6
2014-Sep-15 17:33N 37°41' E 023°42'1110.8
2014-Sep-15 16:33N 37°51' E 023°37'9 8.9
2014-Sep-15 15:33N 37°59' E 023°33'3 2.8
2014-Sep-15 14:28N 38°01' E 023°36'0 0.0
2014-Sep-15 13:33N 38°01' E 023°36'0 0.0
2014-Sep-15 12:31N 38°01' E 023°36'0 0.0
2014-Sep-15 11:31N 38°01' E 023°36'0 0.0
2014-Sep-15 10:25N 38°01' E 023°36'0 0.0
2014-Sep-15 09:28N 38°01' E 023°36'0 0.0
2014-Sep-15 08:25N 38°01' E 023°36'0 0.0
2014-Sep-15 07:28N 38°01' E 023°36'0 0.0
2014-Sep-15 06:31N 38°01' E 023°36'0 0.0
2014-Sep-15 05:31N 38°01' E 023°36'0 0.0
2014-Sep-15 04:31N 38°01' E 023°36'0 0.0
2014-Sep-15 03:31N 38°01' E 023°36'0 0.0
2014-Sep-15 02:31N 38°01' E 023°36'0 0.0
2014-Sep-15 01:31N 38°01' E 023°36'0 0.0
2014-Sep-15 00:31N 38°01' E 023°36'0 0.0
2014-Sep-14 23:31N 38°01' E 023°36'0 0.0
2014-Sep-14 22:31N 38°01' E 023°36'0 0.0
2014-Sep-14 21:31N 38°01' E 023°36'0 0.0
2014-Sep-14 20:31N 38°01' E 023°36'0 0.0
2014-Sep-14 19:31N 38°01' E 023°36'0 0.0
2014-Sep-14 18:31N 38°01' E 023°36'0 0.0
2014-Sep-14 17:31N 38°01' E 023°36'2 1.8
2014-Sep-14 16:33N 38°01' E 023°34'3 0.9
2014-Sep-14 13:30N 38°02' E 023°31'0 0.0
2014-Sep-14 12:24N 38°02' E 023°31'0 0.0
2014-Sep-14 11:21N 38°02' E 023°31'0 0.0
2014-Sep-14 10:18N 38°02' E 023°31'0 0.0
2014-Sep-14 09:30N 38°02' E 023°31'0 0.0
2014-Sep-14 07:30N 38°02' E 023°31'  
Track history (hours):
 
Tides and Currents Weather Stations Pressure Air Temp Water Temp Dewpoint Dewpoint Depression Visibility Wind Speed Wind Dir Waves Ship Positions

Irini

Last reported at 2014-Sep-23 15:34 UTC. Time now 2014-Sep-23 16:29 UTC.
Position N 38°02' E 023°31'.

Length 137 m; draft 5.7 m.

Type: Tanker. MMSI: 240052000.

Date/timePositionNaut miles runAvg speedWind from/ knotsBaromVisibWave heightAir tempDewpointWater temp
2014-Sep-23 15:34N 38°02' E 023°31'0 0.0
2014-Sep-23 14:33N 38°02' E 023°31'0 0.0
2014-Sep-23 13:34N 38°02' E 023°31'0 0.0
2014-Sep-23 12:33N 38°02' E 023°31'0 0.0
2014-Sep-23 11:33N 38°02' E 023°31'0 0.0
2014-Sep-23 10:33N 38°02' E 023°31'0 0.0
2014-Sep-23 09:34N 38°02' E 023°31'0 0.0
2014-Sep-23 08:34N 38°02' E 023°31'0 0.0
2014-Sep-23 07:34N 38°02' E 023°31'1 0.7
2014-Sep-23 06:33N 38°01' E 023°31'8 7.8
2014-Sep-23 05:33N 37°55' E 023°36'9 8.8
2014-Sep-23 04:34N 37°47' E 023°42'1111.0
2014-Sep-23 03:32N 37°39' E 023°51'1111.2
2014-Sep-23 02:34N 37°37' E 024°05'1410.9
2014-Sep-23 01:15N 37°45' E 024°19'1810.8
2014-Sep-22 23:33N 37°58' E 024°35'2410.6
2014-Sep-22 21:16N 38°22' E 024°30'  
2014-Sep-20 16:23N 37°53' E 024°31'1311.3
2014-Sep-20 15:16N 37°44' E 024°19'811.1
2014-Sep-20 14:31N 37°39' E 024°11'1110.8
2014-Sep-20 13:29N 37°36' E 023°57'1011.1
2014-Sep-20 12:33N 37°39' E 023°45'1110.9
2014-Sep-20 11:33N 37°48' E 023°38'9 9.1
2014-Sep-20 10:33N 37°57' E 023°35'4 0.2
2014-Sep-19 08:33N 38°01' E 023°35'6 5.8
2014-Sep-19 07:33N 37°55' E 023°36'1 0.9
2014-Sep-19 06:33N 37°54' E 023°36'6 5.5
2014-Sep-19 05:33N 37°50' E 023°39'1010.2
2014-Sep-19 04:34N 37°41' E 023°46'1611.0
2014-Sep-19 03:03N 37°36' E 024°06'  
2014-Sep-16 00:31N 38°01' E 024°37'1111.3
2014-Sep-15 23:33N 37°52' E 024°30'1111.2
2014-Sep-15 22:33N 37°44' E 024°19'1111.0
2014-Sep-15 21:33N 37°37' E 024°08'7 7.2
2014-Sep-15 20:33N 37°39' E 023°59'0 0.0
2014-Sep-15 19:22N 37°39' E 023°59'14 7.6
2014-Sep-15 17:33N 37°41' E 023°42'1110.8
2014-Sep-15 16:33N 37°51' E 023°37'9 8.9
2014-Sep-15 15:33N 37°59' E 023°33'3 2.8
2014-Sep-15 14:28N 38°01' E 023°36'0 0.0
2014-Sep-15 13:33N 38°01' E 023°36'0 0.0
2014-Sep-15 12:31N 38°01' E 023°36'0 0.0
2014-Sep-15 11:31N 38°01' E 023°36'0 0.0
2014-Sep-15 10:25N 38°01' E 023°36'0 0.0
2014-Sep-15 09:28N 38°01' E 023°36'0 0.0
2014-Sep-15 08:25N 38°01' E 023°36'0 0.0
2014-Sep-15 07:28N 38°01' E 023°36'0 0.0
2014-Sep-15 06:31N 38°01' E 023°36'0 0.0
2014-Sep-15 05:31N 38°01' E 023°36'0 0.0
2014-Sep-15 04:31N 38°01' E 023°36'0 0.0
2014-Sep-15 03:31N 38°01' E 023°36'0 0.0
2014-Sep-15 02:31N 38°01' E 023°36'0 0.0
2014-Sep-15 01:31N 38°01' E 023°36'0 0.0
2014-Sep-15 00:31N 38°01' E 023°36'0 0.0
2014-Sep-14 23:31N 38°01' E 023°36'0 0.0
2014-Sep-14 22:31N 38°01' E 023°36'0 0.0
2014-Sep-14 21:31N 38°01' E 023°36'0 0.0
2014-Sep-14 20:31N 38°01' E 023°36'0 0.0
2014-Sep-14 19:31N 38°01' E 023°36'0 0.0
2014-Sep-14 18:31N 38°01' E 023°36'0 0.0
2014-Sep-14 17:31N 38°01' E 023°36'2 1.8
2014-Sep-14 16:33N 38°01' E 023°34'3 0.9
2014-Sep-14 13:30N 38°02' E 023°31'0 0.0
2014-Sep-14 12:24N 38°02' E 023°31'0 0.0
2014-Sep-14 11:21N 38°02' E 023°31'0 0.0
2014-Sep-14 10:18N 38°02' E 023°31'0 0.0
2014-Sep-14 09:30N 38°02' E 023°31'0 0.0
2014-Sep-14 07:30N 38°02' E 023°31'  

Dump ship's entire track history